Flag Weather past 2 weeks in Emmendingen, Baden-Württemberg, Germany

Now
43 °F

Drizzle. Low clouds.


Feels Like: 41 °F
Forecast: 37 / 50 °F
Wind: 3 mph from North

Location: Lahr

Current Time: Nov 28, 2014 at 6:50:06 AM

Latest Report: Nov 28, 2014 at 6:00 AM


Visibility: 2 mi

Pressure: 29.78 "Hg

Humidity: 99%

Dew point: 43 °F

Location of EmmendingenLocation

Historic Weather in Emmendingen — Graph

°F

Emmendingen temperature yesterday

Maximum temperature yesterday: 47 °F (at 3:00 PM)
Minimum temperature yesterday: 42 °F (at 3:00 AM)
Average temperature yesterday: 44 °F

Past Weeks' High & Low Weather Summary

 TemperatureHumidityPressure
High56 °F (Nov 24, 12:00 PM)100% (Nov 13, 5:00 AM)30.32 "Hg (Nov 13, 5:00 AM)
Low36 °F (Nov 20, 12:00 AM)65% (Nov 16, 2:00 PM)29.60 "Hg (Nov 15, 9:00 PM)
Average46 °F93%29.97 "Hg
* Reported Nov 13 5:00 AM — Nov 28 5:00 AM, Emmendingen, Weather by CustomWeather, © 2014

Note: Actual official high and low records may vary slightly from our data, if they occured in-between our weather recording intervals... More about our weather records

Advertising

Emmendingen weather history for previous 24 hours

 ConditionsComfort  
Time TempWeatherWind HumidityBarometerVisibility
5:00 AM
Nov 28
44 °FLow clouds.3 mph100%29.78 "Hg0 mi
4:00 AM44 °FLow clouds.2 mph100%29.79 "Hg0 mi
3:00 AM44 °FLow clouds.2 mph100%29.80 "Hg0 mi
2:00 AM45 °FLow clouds.1 mph100%29.80 "Hg0 mi
1:00 AM45 °FLow clouds.1 mph100%29.80 "Hg0 mi
12:00 AM45 °FLow clouds.1 mph100%29.81 "Hg1 mi
11:00 PM
Nov 27
45 °FFog.1 mph97%29.80 "Hg2 mi
10:00 PM45 °FFog.1 mph97%29.80 "Hg2 mi
9:00 PM45 °FFog.1 mph96%29.80 "Hg3 mi
8:00 PM46 °FFog.2 mph95%29.80 "Hg4 mi
7:00 PM46 °FFog.1 mph95%29.80 "Hg3 mi
6:00 PM46 °FFog.3 mph93%29.79 "Hg3 mi
5:00 PM46 °FFog.2 mph92%29.78 "Hg2 mi
4:00 PM47 °FFog.2 mph90%29.78 "Hg3 mi
3:00 PM47 °FLow clouds.2 mph91%29.78 "Hg3 mi
2:00 PM45 °FLight rain. Low clouds.2 mph93%29.81 "Hg2 mi
1:00 PM45 °FLight rain. Low clouds.1 mph92%29.81 "Hg2 mi
12:00 PM44 °FLow clouds.1 mph92%29.82 "Hg2 mi
11:00 AM44 °FFog.1 mph91%29.83 "Hg2 mi
10:00 AM43 °FFog.1 mph92%29.84 "Hg2 mi
9:00 AM42 °FFog.1 mph98%29.84 "Hg1 mi
8:00 AM42 °FFog.2 mph95%29.83 "Hg2 mi
7:00 AM42 °FFog.2 mph97%29.84 "Hg2 mi
6:00 AM43 °FFog.2 mph96%29.85 "Hg2 mi
Weather by CustomWeather, © 2014

See weather overviewHow to use our weather pages